User: anonymous   Login
Location: Morehead State University
(38.1872°N, 83.4339°W)
Time: 22:59:20
(UTC-05:00)
Language:

Okean 2 - Orbit

View from above orbital plane
View from above orbital plane
View from above satellite
View from above satellite

Ground track
Ground track

The orbit data is extracted from the following two-line orbital elements,

1 20510U 90018A   15056.56768830  .00002573  00000-0  22002-3 0  9992
2 20510 082.5142 259.7924 0011822 309.7114 104.8498 14.97210296355276
Epoch (UTC): 25 February 2015 13:37:28
Eccentricity: 0.0011822
inclination: 82.5142°
perigee height: 567 km
apogee height: 584 km
right ascension of ascending node: 259.7924°
argument of perigee: 309.7114°
revolutions per day: 14.97210296
mean anomaly at epoch: 104.8498°
orbit number at epoch: 35527

The dashed part of the orbit path shows where the satellite is in the earth's shadow,  

DLR